Palma de Mallorca, Spain

05:55 PM CET on November 18, 2018 (GMT +0100)
Sa Pobla | | Change Station

Elev 35 ft 39.76 °N, 3.03 °E | Updated 11 seconds ago

Molnigt
Molnigt
59.4 °F
Feels Like 59.4 °F
N
0
Vind Växlande Vind from N/NV
Gusts 0.0 miles/tim

Idag
High -- | Low -- °F
--% Chance of Precip.
Yesterday
High -- | Low -- °F
Precip. -- tum
Lufttryck 29.77 tum
Sikt 6.2 miles
Molnigt Few 2400 ft
Växlande molnighet 3500 ft
Daggpunkt 54 °F
Luftfuktighet 81%
Rainfall 0.01 tum
Snow Depth Not available.
7:35 AM 5:30 PM
Andra kvarteret, 78% visible
METAR LEPA 181530Z 08006KT 9999 FEW024 SCT035 17/13 Q1008 NOSIG
Lufttryck 29.77 tum
Sikt 6.2 miles
Molnigt Few 2400 ft
Växlande molnighet 3500 ft
Daggpunkt 54 °F
Luftfuktighet 81%
Rainfall 0.01 tum
Snow Depth Not available.
7:35 AM 5:30 PM
Andra kvarteret, 78% visible
METAR LEPA 181530Z 08006KT 9999 FEW024 SCT035 17/13 Q1008 NOSIG

Get Severe Weather Alerts

Thanks for signing up!

Be on the lookout for a verification email in your inbox.

You'll start receiving the daily forecast at 6 AM.

×

10-Day Weather Forecast

×

Almanac

Astronomi

Nov. 18, 2018 Rise Set
Actual Time
Civil Twilight
Nautical Twilight
Astronomical Twilight
Månen
Length Of Visible Light
Dagens längd
Tomorrow will be .
, % of the Moon is Illuminated

Today's Extremes

Country Highs Country Lows

Community

WunderPhotos

Category 6

Welcome to Category 6. This is the collective home for Weather Underground's featured writeups by Dr. Jeff Masters (right), Bob Henson (left), Chris Burt, and other regular contributors.

Nearby

Air Quality

  Air Quality AQ Index Pollutant
Not available.

Snödjup

Station Depth Elevation

Earthquake Activity

Stad Distance Mag. Time & Date
Minimum magnitude displayed is 2.5.

Coastal Water Temperatures

Plats Temperatur

Stations

Nearby Weather Stations

Station Location Temp Vindavkylning Daggpunkt Luftfuktighet Vind Precip. Elev Uppdaterad Type